Regional Weather Roundup
Issued by NWS Northern Indiana

Home | Current Version | Previous Version | Text Only | Print | Product List | Glossary Off
Versions: 1 2 3 4 5 6 7 8 9 10 11 12 13 14 15 16 17 18 19 20 21 22 23 24 25 26 27 28 29 30 31 32 33 34 35 36 37 38 39 40 41 42 43 44 45 46 47 48 49 50

000
ASUS43 KIWX 211500
RWRIWX

KIWX WEATHER ROUNDUP
NATIONAL WEATHER SERVICE NORTHERN INDIANA
1100 AM EDT FRI JUL 21 2017

NOTE: "FAIR" INDICATES FEW OR NO CLOUDS BELOW 12,000 FEET WITH NO
SIGNIFICANT WEATHER AND/OR OBSTRUCTIONS TO VISIBILITY.

* THESE STATIONS ARE NOT UNDER NWS QUALITY CONTROL. THEY ALSO MAY NOT
  REPORT WEATHER SUCH AS PRECIPITATION OR FOG.

INZ001>027-211600-
NORTHERN INDIANA

CITY           SKY/WX    TMP DP  RH WIND       PRES   REMARKS
GARY*          PTSUNNY   84  68  58 SE7       29.99S
MICHIGAN CITY* SUNNY     81  68  65 SE5       29.99S
SOUTH BEND     MOSUNNY   80  68  66 E7        29.99F
ELKHART*       MOSUNNY   79  66  65 E9        29.98F
GOSHEN         MOSUNNY   77  66  68 NE10      29.99F
MONTICELLO*    MOSUNNY   77  71  82 S3        30.00R
FORT WAYNE     CLOUDY    80  71  74 NE8       29.99F
PERU/GRISSOM   MOSUNNY   77  71  83 S5        29.99R

$$
INZ028>050-211600-
CENTRAL INDIANA

CITY           SKY/WX    TMP DP  RH WIND       PRES   REMARKS
LAFAYETTE      CLOUDY    77  73  87 CALM      30.00R
KOKOMO*        MOSUNNY   76  71  85 S6        30.01R
MUNCIE*        CLOUDY    75  70  84 W7        30.00S
INDIANAPOLIS   PTSUNNY   79  71  76 SE9       30.01S

$$
MIZ043>046-050>051-056>058-064>065-071>073-077>080-211600-
SOUTHWEST LOWER MICHIGAN

CITY           SKY/WX    TMP DP  RH WIND       PRES   REMARKS
BATTLE CREEK   MOSUNNY   79  68  69 E7        30.01F
BENTON HARBOR  MOSUNNY   78  70  76 E7        29.97F
COLDWATER*     CLOUDY    74  72  93 CALM      30.01F
HILLSDALE*     PTSUNNY   72  66  83 CALM      30.02F
HOLLAND        MOSUNNY   78  70  76 SE7       29.99F
GRAND RAPIDS   PTSUNNY   79  71  76 NE5       29.99F
KALAMAZOO      MOSUNNY   79  66  64 VRB5      30.00F
STURGIS*       PTSUNNY   75  70  85 E8        29.99F
THREE RIVERS*  FAIR      76  69  77 NE7       30.00F

$$
OHZ001>008-015>018-024>025-211600-
NORTHWEST OHIO

CITY           SKY/WX    TMP DP  RH WIND       PRES   REMARKS
DEFIANCE       CLOUDY   N/A N/A N/A E3        29.99F
FINDLAY        CLOUDY    81  70  69 NE5       29.99F
TOLEDO EXPRESS CLOUDY    82  71  69 E3        29.99S
TOLEDO METCALF CLOUDY    83  72  69 E6        29.99F
LIMA           CLOUDY    77  73  87 N3        30.01F

$$
AND FOR LAKE MICHIGAN COASTAL AND OPEN LAKE BUOY OBSERVATIONS

STATION/POSITION TEMP    WIND        PRES    VSBY  WAVE
                 AIR SEA DIR/SP/G                  HT/PER
                 (F)     (DEG/KT/KT) (MB)    (MI)  (FT/S)
CALUMET HARBOR    75      50/  5/  6 1014.9F
MICHIGAN CITY     79      70/  5/  8   N/A
BURNS HARBOR      76     300/  5/  6 1015.6S
SAINT JOSEPH      76      40/  2/  5 1015.6
SOUTH LAKE BUOY   71 70   80/  6/  6 1014.9          0
4 MI NW BRIDGMAN  75 75  110/  4/  6 1014.7F         0
MICHIGAN CITY     76 75   40/  2/  2   N/A           1

$$
&&




USA.gov is the U.S. government's official web portal to all federal, state and local government web resources and services.